Location: La Coruña
(43.3623°N, 8.4115°W)
Time: 01:44:21
(UTC+01:00)

STARLINK-1094 - Pass Details

Date: 19 January 2020
Orbit: 348 x 351 km, 53.0° (Epoch: 17 February)

Event Time Altitude Azimuth Distance (km) Brightness Sun altitude
Rises 18:54:24 0° 236° (SW) 2,161 8.8 -5.2°
Reaches altitude 10° 18:56:24 10° 237° (WSW) 1,323 7.3 -5.6°
Maximum altitude 18:59:21 81° 324° (NW) 365 2.8 -6.1°
Drops below altitude 10° 19:02:20 10° 53° (NE) 1,335 5.0 -6.6°
Enters shadow 19:02:39 - 53° (NE) 1,465 5.2 -6.6°
